Погода в Кулаево

Россия / Республика Татарстан     55°42′43″N   49°34′14″E
темп.,
°C
ветер,
м/с
пор.,
м/с
влажн.,
%
обл.,
%
осадки,
мм/ч
давл.,
гПа
погр.,
м
6 мая, чт
чт600:00+4зюз498818 0.0 1011214
03:00+5зюз3780100 0.0 1012234
06:00+5юз2379100 0.1 1014104
09:00+9юз357614 0.1 1015462
12:00+13зюз476898 0.0 10161131
15:00+16юз475762 0.1 10151484
18:00+13ю377475 0.1 1015170
21:00+11ю347970 0.1 101552
7 мая, пт
пт700:00+10ю3983100 0.0 1016156
03:00+8ю41185100 0.0 1016183
06:00+10ю51375100 0.0 1016349
09:00+14ю71259100 0.0 1016743
12:00+17ююз81147100 0.0 10162097
15:00+16ююз6105387 0.0 10151025
18:00+12зсз478199 0.8 1016256
21:00+10ссз249296 1.0 1018155
8 мая, сб
сб800:00+10с2287100 0.1 101853
03:00+9св2286100 0.1 101954
06:00+10св248798 0.0 1019195
09:00+13ююв3577100 0.0 1018587
12:00+17ю565822 0.2 10171349
15:00+19ююз68485 0.3 10162078
18:00+16ююв496477 0.0 1015303
21:00+14ююв51368100 0.0 1015357
9 мая, вс
вс900:00+12ююв5147245 0.0 1015307
03:00+12ююв6156999 0.0 1014326
06:00+13ююв71667100 0.0 1014486
09:00+14ю51368100 0.1 1015594
12:00+18ююв71256100 0.0 10141100
15:00+17юз61066100 0.0 10161051
18:00+13з3794100 0.4 1017314
21:00+10ссз3692100 0.7 1020290
10 мая, пн
пн1000:00+9с5892100 1.0 1021295
03:00+8ссз5993100 2.3 1023417
06:00+8с5892100 1.1 1024376
09:00+8с61091100 2.4 1026546
12:00+8ссв5991100 1.1 1027427
15:00+9ссв468190 1.3 1028429
18:00+9св378272 0.0 1028327
21:00+7ссв119011 0.0 102911